FW7124 Weather Reports


time (UTC)temp
C
wind
direction
speed
KPH
gust
KPH
rain 1hr
cm
rain 24hr
cm
rain mn
cm
humidity
%
barometer
mb
20260508033628 7 109 0.0 0.0 0.00 0.00 0.00 89 1016.4
20260508032627 7 109 0.0 0.0 0.00 0.00 0.00 89 1016.4
20260508031627 7 109 0.0 0.0 0.00 0.00 0.00 88 1016.4
20260508030628 7 109 0.0 0.0 0.00 0.00 0.00 88 1016.5
20260508025627 7 109 0.0 0.0 0.00 0.00 0.00 88 1016.5
20260508024626 7 109 0.0 0.0 0.00 0.00 0.00 88 1016.6
20260508023627 7 109 0.0 0.0 0.00 0.00 0.00 88 1016.6
20260508022627 7 109 0.0 0.0 0.00 0.00 0.00 87 1016.7
20260508021626 7 109 0.0 0.0 0.00 0.00 0.00 87 1016.6
20260508015629 7 109 0.0 0.0 0.00 0.00 0.00 87 1016.6
20260508014625 7 109 0.0 0.0 0.00 0.00 0.00 88 1016.6
20260508013626 7 109 0.0 0.0 0.00 0.00 0.00 88 1016.7
20260508012625 7 109 0.0 0.0 0.00 0.00 0.00 88 1016.6
20260508011622 7 109 0.0 0.0 0.00 0.00 0.00 88 1016.7
20260508010623 8 109 0.0 0.0 0.00 0.00 0.00 88 1016.8
20260508005621 8 109 0.0 0.0 0.00 0.00 0.00 88 1016.8
20260508004621 7 109 0.0 0.0 0.00 0.00 0.00 87 1016.7
20260508003618 7 113 0.0 0.0 0.00 0.00 0.00 88 1016.8
20260508002615 7 113 0.0 0.0 0.00 0.00 0.00 87 1016.8
20260508001614 7 113 0.0 0.0 0.00 0.00 0.00 87 1017.0
20260508000612 7 113 0.0 0.0 0.00 0.00 0.00 86 1017.0
20260507235610 7 113 0.0 0.0 0.00 0.00 0.00 85 1016.9
20260507234609 7 113 0.0 0.0 0.00 0.00 0.00 86 1016.9
20260507233609 7 113 0.0 0.0 0.00 0.00 0.00 86 1017.0
20260507232612 7 113 0.0 0.0 0.00 0.00 0.00 86 1017.0
20260507231608 7 113 0.0 0.0 0.00 0.00 0.00 85 1017.1
20260507230609 7 113 0.0 3.2 0.00 0.00 0.00 84 1017.1
20260507225610 7 113 0.0 3.2 0.00 0.00 0.00 84 1017.1
20260507223609 8 113 0.0 0.0 0.00 0.00 0.00 84 1017.3
20260507222605 8 113 0.0 0.0 0.00 0.00 0.00 83 1017.3
20260507221605 8 113 0.0 0.0 0.00 0.00 0.00 82 1017.2
20260507220604 8 113 0.0 1.6 0.00 0.00 0.00 81 1017.3
20260507215605 9 113 0.0 1.6 0.00 0.00 0.00 81 1017.2
20260507214605 9 113 0.0 1.6 0.00 0.00 0.00 77 1017.2
20260507213604 9 113 0.0 3.2 0.00 0.00 0.00 77 1017.1
20260507212559 9 113 0.0 3.2 0.00 0.00 0.00 77 1017.0
20260507212047 9 130 1.6 3.2 0.00 0.00 0.00 76 1017.2
20260507210601 10 144 0.0 3.2 0.00 0.00 0.00 78 1017.2
20260507205559 10 196 0.0 1.6 0.00 0.00 0.00 77 1017.2
20260507204556 10 196 0.0 3.2 0.00 0.00 0.00 77 1017.1
20260507203556 10 196 0.0 3.2 0.00 0.00 0.00 77 1017.0
20260507203041 10 122 0.0 1.6 0.00 0.00 0.00 74 1016.9
20260507202048 11 122 0.0 1.6 0.00 0.00 0.00 73 1016.8
20260507200554 11 122 0.0 0.0 0.00 0.00 0.00 73 1016.6
20260507195553 11 122 0.0 3.2 0.00 0.00 0.00 71 1016.4
20260507194552 12 122 0.0 3.2 0.00 0.00 0.00 70 1016.3
20260507193553 12 122 0.0 4.8 0.00 0.00 0.00 70 1016.1
20260507192550 12 122 1.6 4.8 0.00 0.00 0.00 69 1016.2
20260507191550 12 213 1.6 6.4 0.00 0.00 0.00 68 1016.1
20260507190549 12 200 1.6 8.0 0.00 0.00 0.00 67 1016.0
20260507185548 13 108 1.6 8.0 0.00 0.00 0.00 67 1015.9
20260507184548 13 231 3.2 12.9 0.00 0.00 0.00 66 1015.9
20260507184025 13 123 3.2 12.9 0.00 0.00 0.00 65 1016.0
20260507182548 13 153 3.2 12.9 0.00 0.00 0.00 65 1015.9
20260507181548 13 115 3.2 8.0 0.00 0.00 0.00 65 1015.9
20260507175551 13 186 3.2 8.0 0.00 0.00 0.00 65 1015.9
20260507174549 13 113 1.6 8.0 0.00 0.00 0.00 64 1015.8
20260507174031 13 138 1.6 11.3 0.00 0.00 0.00 64 1015.9
20260507172602 13 128 1.6 11.3 0.00 0.00 0.00 64 1015.7
20260507172022 13 116 1.6 11.3 0.00 0.00 0.00 64 1015.7
20260507171034 13 153 3.2 12.9 0.00 0.00 0.00 64 1015.7
20260507165551 13 84 1.6 8.0 0.00 0.00 0.00 65 1015.8
20260507164547 13 238 3.2 8.0 0.00 0.00 0.00 65 1015.7
20260507163545 13 211 3.2 9.7 0.00 0.00 0.00 65 1015.8
20260507163031 13 128 3.2 11.3 0.00 0.00 0.00 65 1015.8
20260507161021 13 200 4.8 17.7 0.00 0.00 0.00 63 1015.9
20260507155542 13 130 4.8 11.3 0.00 0.00 0.00 63 1015.9
20260507154542 13 217 3.2 9.7 0.00 0.00 0.00 60 1015.9
20260507153542 13 234 3.2 9.7 0.00 0.00 0.00 55 1015.9
20260507152542 14 184 3.2 12.9 0.00 0.00 0.00 58 1015.9
20260507151540 14 184 3.2 9.7 0.00 0.00 0.00 57 1015.9
20260507151017 14 140 3.2 9.7 0.00 0.00 0.00 56 1015.8
20260507145540 15 138 1.6 8.0 0.00 0.00 0.00 51 1015.9
20260507143541 15 229 0.0 3.2 0.00 0.00 0.00 47 1016.1
20260507143023 15 266 1.6 11.3 0.00 0.00 0.00 52 1016.0
20260507141538 15 129 3.2 11.3 0.00 0.00 0.00 49 1016.1
20260507140539 15 144 1.6 8.0 0.00 0.00 0.00 49 1016.2
20260507135538 14 128 1.6 9.7 0.00 0.00 0.00 52 1016.1
20260507134538 14 118 3.2 12.9 0.00 0.00 0.00 57 1016.2
20260507133538 14 101 3.2 12.9 0.00 0.00 0.00 57 1016.2
20260507132538 15 219 1.6 9.7 0.00 0.00 0.00 57 1016.2
20260507131538 15 232 1.6 8.0 0.00 0.00 0.00 47 1016.3
20260507130538 15 123 1.6 6.4 0.00 0.00 0.00 47 1016.4
20260507125538 15 165 1.6 8.0 0.00 0.00 0.00 47 1016.3
20260507124538 15 115 1.6 4.8 0.00 0.00 0.00 48 1016.4
20260507123538 15 142 1.6 11.3 0.00 0.00 0.00 48 1016.4
20260507122538 15 124 1.6 8.0 0.00 0.00 0.00 48 1016.4
20260507121538 15 142 1.6 6.4 0.00 0.00 0.00 47 1016.5
20260507121016 15 132 1.6 8.0 0.00 0.00 0.00 48 1016.5
20260507115538 15 132 0.0 4.8 0.00 0.00 0.00 50 1016.5
20260507114539 15 156 0.0 11.3 0.00 0.00 0.00 48 1016.5
20260507113538 15 73 1.6 11.3 0.00 0.00 0.00 49 1016.4
20260507112538 16 140 0.0 8.0 0.00 0.00 0.00 49 1016.4
20260507112021 16 130 1.6 4.8 0.00 0.00 0.00 48 1016.4
20260507110539 14 126 0.0 1.6 0.00 0.00 0.00 53 1016.4
20260507105536 14 133 0.0 3.2 0.00 0.00 0.00 56 1016.6
20260507104538 14 134 0.0 4.8 0.00 0.00 0.00 55 1016.6
20260507103536 15 26 0.0 4.8 0.00 0.00 0.00 51 1016.7
20260507102539 16 110 1.6 12.9 0.00 0.00 0.00 49 1016.8
20260507101533 16 148 1.6 11.3 0.00 0.00 0.00 47 1016.8
20260507095535 15 64 0.0 3.2 0.00 0.00 0.00 54 1017.0
20260507094533 15 86 0.0 6.4 0.00 0.00 0.00 56 1016.9
20260507093533 15 81 1.6 8.0 0.00 0.00 0.00 59 1017.0
20260507093026 15 109 1.6 6.4 0.00 0.00 0.00 59 1017.0
20260507092022 14 74 1.6 8.0 0.00 0.00 0.00 62 1017.0
20260507091015 13 125 1.6 8.0 0.00 0.00 0.00 65 1017.0
20260507085532 13 116 1.6 8.0 0.00 0.00 0.00 67 1017.1
20260507084527 13 164 1.6 4.8 0.00 0.00 0.00 72 1017.1
20260507083524 12 152 1.6 4.8 0.00 0.00 0.00 75 1017.0
20260507082523 12 70 0.0 3.2 0.00 0.00 0.00 78 1016.9
20260507081522 11 94 0.0 3.2 0.00 0.00 0.00 80 1016.9
20260507080521 10 127 0.0 3.2 0.00 0.00 0.00 82 1017.0
20260507075522 10 109 0.0 3.2 0.00 0.00 0.00 84 1016.9
20260507073519 8 94 0.0 3.2 0.00 0.00 0.00 87 1016.9
20260507072517 8 126 0.0 3.2 0.00 0.00 0.00 90 1016.8
20260507071517 7 112 0.0 3.2 0.00 0.00 0.00 91 1016.8
20260507070518 6 136 0.0 3.2 0.00 0.00 0.00 92 1016.7
20260507065515 6 136 0.0 3.2 0.00 0.00 0.00 94 1016.9
20260507064515 6 5 0.0 0.0 0.00 0.00 0.00 94 1016.9
20260507063514 5 5 0.0 0.0 0.00 0.00 0.00 95 1016.9
20260507062513 5 5 0.0 0.0 0.00 0.00 0.00 95 1016.8
20260507061514 4 5 0.0 0.0 0.00 0.00 0.00 95 1016.7
20260507060511 3 5 0.0 0.0 0.00 0.00 0.00 94 1016.6
20260507055511 3 5 0.0 0.0 0.00 0.00 0.00 93 1016.6
20260507054512 3 5 0.0 0.0 0.00 0.00 0.00 93 1016.5
20260507053511 3 5 0.0 0.0 0.00 0.00 0.00 92 1016.5
20260507052511 3 5 0.0 0.0 0.00 0.00 0.00 92 1016.4
20260507051728 3 5 0.0 0.0 0.00 0.00 0.00 92 1016.3
20260507051615 3 5 0.0 0.0 0.00 0.00 0.00 92 1016.4
20260507045518 3 5 0.0 0.0 0.00 0.00 0.00 92 1016.3
20260507044508 3 5 0.0 0.0 0.00 0.00 0.00 91 1016.2
20260507043509 3 5 0.0 0.0 0.00 0.00 0.00 91 1016.3
20260507042508 3 5 0.0 0.0 0.00 0.00 0.00 91 1016.3
20260507041508 3 5 0.0 0.0 0.00 0.00 0.00 91 1016.3
20260507040507 3 5 0.0 0.0 0.00 0.00 0.00 92 1016.4
20260507035502 3 5 0.0 0.0 0.00 0.00 0.00 91 1016.4
20260507034459 3 5 0.0 0.0 0.00 0.00 0.00 90 1016.4